sat.trackr.live / text

‹ back to catalog

STARLINK-32735

NORAD 63044 · 2025-034R

PAYLOAD ACTIVE UNKNOWN

§ Identity

Operator
Country
US
Launch date
2025-02-18
Launch site
AFETR
Launch vehicle
Mass (kg)
RCS (m²)

Purposes: comms

External: N2YO · Heavens-Above · Gunter

§ Orbital elements

Epoch: 2026-05-24T16:50:35.015424Z

Period
93.85 min
Inclination
53.1601°
Eccentricity
0.0001092
Mean motion
15.34410900 rev/d
Perigee alt
461.9 km
Apogee alt
463.4 km
Semi-major
6,840.8 km
B*
8.3121e-4
RAAN
277.2013°
Arg perigee
80.5783°
Mean anomaly
279.5343°
Rev number
7,055

§ Raw data

STARLINK-327351 63044U 25034R   26144.70179416  .00027821  00000+0  83121-3 0  99902 63044  53.1601 277.2013 0001092  80.5783 279.5343 15.34410900 70557

JSON: /api/v1/satellites/63044 · /tle

For live sub-satellite position, see the globe view (requires WebGL).

§ Visibility from observer

Set your observer location to see the next 7 days of passes ≥ 10°. The values pass through the URL so the page stays shareable.

No JS? Fill the form by hand. The geolocation button needs JavaScript.